SV2MJJ Weather Reports


time (UTC)temp
C
wind
direction
speed
KPH
gust
KPH
rain 1hr
cm
rain 24hr
cm
rain mn
cm
humidity
%
barometer
mb
20210515041052 17 294 0.0 0.0 0.00 0.00 0.00 56 1005.8
20210515040532 17 294 0.0 0.0 0.00 0.00 0.00 57 1005.9
20210515040044 17 294 0.0 0.0 0.00 0.00 0.00 57 1005.8
20210515035553 17 296 0.0 0.0 0.00 0.00 0.00 57 1005.8
20210515035033 17 296 0.0 0.0 0.00 0.00 0.00 58 1005.8
20210515034548 17 296 0.0 0.0 0.00 0.00 0.00 56 1005.8
20210515034051 17 296 0.0 0.0 0.00 0.00 0.00 56 1005.7
20210515033550 17 296 0.0 0.0 0.00 0.00 0.00 56 1005.8
20210515033058 17 296 0.0 0.0 0.00 0.00 0.00 56 1005.8
20210515032551 17 296 0.0 0.0 0.00 0.00 0.00 56 1006.0
20210515032046 17 296 0.0 0.0 0.00 0.00 0.00 56 1005.9
20210515031554 17 296 0.0 0.0 0.00 0.00 0.00 55 1006.0
20210515031049 18 296 0.0 0.0 0.00 0.00 0.00 54 1006.0
20210515030545 18 296 0.0 0.0 0.00 0.00 0.00 53 1006.1
20210515030055 18 296 0.0 0.0 0.00 0.00 0.00 51 1006.2
20210515025534 18 296 0.0 0.0 0.00 0.00 0.00 52 1006.2
20210515025056 18 296 0.0 0.0 0.00 0.00 0.00 52 1006.2
20210515024532 18 296 0.0 0.0 0.00 0.00 0.00 52 1006.0
20210515024031 18 296 0.0 0.0 0.00 0.00 0.00 52 1006.0
20210515023555 18 296 0.0 0.0 0.00 0.00 0.00 51 1006.1
20210515023035 18 296 0.0 0.0 0.00 0.00 0.00 51 1006.2
20210515022550 18 296 0.0 0.0 0.00 0.00 0.00 51 1006.2
20210515022055 18 296 0.0 0.0 0.00 0.00 0.00 51 1005.8
20210515021534 18 296 0.0 0.0 0.00 0.00 0.00 50 1005.7
20210515021101 18 295 0.0 0.0 0.00 0.00 0.00 49 1005.8
20210515020554 18 281 0.0 0.0 0.00 0.00 0.00 48 1005.9
20210515020033 18 281 0.0 0.0 0.00 0.00 0.00 48 1005.8
20210515015600 18 281 0.0 0.0 0.00 0.00 0.00 47 1005.8
20210515015038 19 279 0.0 0.0 0.00 0.00 0.00 47 1005.8
20210515014551 18 282 0.0 0.0 0.00 0.00 0.00 47 1005.9
20210515014059 18 280 0.0 0.0 0.00 0.00 0.00 48 1006.0
20210515013534 18 280 0.0 0.0 0.00 0.00 0.00 49 1006.0
20210515013046 18 280 0.0 0.0 0.00 0.00 0.00 49 1005.9
20210515012533 18 280 0.0 0.0 0.00 0.00 0.00 48 1005.9
20210515012050 18 279 0.0 0.0 0.00 0.00 0.00 48 1006.0
20210515011550 18 280 0.0 0.0 0.00 0.00 0.00 48 1006.2
20210515011049 18 277 0.0 0.0 0.00 0.00 0.00 50 1006.3
20210515010547 18 277 0.0 0.0 0.00 0.00 0.00 51 1006.3
20210515010052 18 277 0.0 0.0 0.00 0.00 0.00 51 1006.3
20210515005546 18 277 0.0 0.0 0.00 0.00 0.00 49 1006.3
20210515005043 18 277 0.0 0.0 0.00 0.00 0.00 49 1006.4
20210515004535 18 277 0.0 0.0 0.00 0.00 0.00 48 1006.4
20210515004049 18 276 0.0 0.0 0.00 0.00 0.00 47 1006.5
20210515003558 18 275 0.0 0.0 0.00 0.00 0.00 48 1006.7
20210515003033 18 273 0.0 0.0 0.00 0.00 0.00 50 1006.6
20210515002548 18 272 0.0 0.0 0.00 0.00 0.00 49 1006.4
20210515002054 18 272 0.0 0.0 0.00 0.00 0.00 49 1006.4
20210515001533 18 271 0.0 0.0 0.00 0.00 0.00 48 1006.6
20210515001047 18 266 0.0 0.0 0.00 0.00 0.00 48 1006.4
20210515000551 18 262 0.0 0.0 0.00 0.00 0.00 47 1006.4
20210515000050 18 262 0.0 0.0 0.00 0.00 0.00 47 1006.3
20210514235556 18 261 0.0 0.0 0.00 0.00 0.00 47 1006.4
20210514235035 18 285 0.0 0.0 0.00 0.00 0.00 47 1006.4
20210514234535 18 286 0.0 0.0 0.00 0.00 0.00 47 1006.4
20210514234034 18 283 0.0 0.0 0.00 0.00 0.00 47 1006.3
20210514233537 18 283 0.0 0.0 0.00 0.00 0.00 47 1006.4
20210514233037 18 282 0.0 0.0 0.00 0.00 0.00 46 1006.4
20210514232547 18 282 0.0 0.0 0.00 0.00 0.00 46 1006.3
20210514232042 18 286 0.0 0.0 0.00 0.00 0.00 46 1006.4
20210514231542 18 286 0.0 0.0 0.00 0.00 0.00 46 1006.6
20210514231052 18 287 0.0 0.0 0.00 0.00 0.00 46 1006.5
20210514230548 19 286 0.0 0.0 0.00 0.00 0.00 46 1006.5
20210514230047 19 268 0.0 0.0 0.00 0.00 0.00 45 1006.4
20210514225554 19 267 0.0 0.0 0.00 0.00 0.00 46 1006.5
20210514225035 19 265 0.0 0.0 0.00 0.00 0.00 46 1006.4
20210514224601 19 251 0.0 0.0 0.00 0.00 0.00 46 1006.4
20210514224042 18 251 0.0 0.0 0.00 0.00 0.00 46 1006.4
20210514223542 18 261 0.0 0.0 0.00 0.00 0.00 46 1006.5
20210514223038 18 265 0.0 0.0 0.00 0.00 0.00 46 1006.7
20210514222547 18 253 0.0 0.0 0.00 0.00 0.00 46 1006.6
20210514222043 18 263 0.0 0.0 0.00 0.00 0.00 46 1006.6
20210514221546 19 267 0.0 0.0 0.00 0.00 0.00 46 1006.6
20210514221041 19 265 0.0 0.0 0.00 0.00 0.00 45 1006.5
20210514220544 20 261 0.0 0.0 0.00 0.00 0.00 44 1006.5
20210514220038 20 259 0.0 0.0 0.00 0.00 0.00 44 1006.6
20210514215535 20 257 0.0 0.0 0.00 0.00 0.00 43 1006.7
20210514215045 20 255 0.0 0.0 0.00 0.00 0.00 42 1006.7
20210514214538 20 261 0.0 0.0 0.00 0.00 0.00 42 1006.7
20210514214040 20 261 0.0 0.0 0.00 0.00 0.00 42 1006.6
20210514213540 20 261 0.0 0.0 0.00 0.00 0.00 43 1006.6
20210514213101 20 263 0.0 0.0 0.00 0.00 0.00 43 1006.6
20210514212534 20 263 0.0 0.0 0.00 0.00 0.00 43 1006.6
20210514212034 20 280 0.0 0.0 0.00 0.00 0.00 42 1006.7
20210514211543 20 288 0.0 0.0 0.00 0.00 0.00 42 1006.6
20210514211036 20 293 0.0 0.0 0.00 0.00 0.00 42 1006.7
20210514210532 20 296 0.0 0.0 0.00 0.00 0.00 42 1006.6
20210514210039 20 301 0.0 0.0 0.00 0.00 0.00 42 1006.7
20210514205533 20 302 0.0 0.0 0.00 0.00 0.00 42 1006.7
20210514205043 20 303 0.0 0.0 0.00 0.00 0.00 42 1006.7
20210514204539 21 312 0.0 0.0 0.00 0.00 0.00 41 1006.6
20210514204038 21 309 0.0 0.0 0.00 0.00 0.00 41 1006.6
20210514203540 21 286 0.0 0.0 0.00 0.00 0.00 40 1006.6
20210514203041 21 286 0.0 0.0 0.00 0.00 0.00 40 1006.6
20210514202545 21 276 0.0 0.0 0.00 0.00 0.00 40 1006.5
20210514202042 21 260 0.0 0.0 0.00 0.00 0.00 40 1006.7
20210514201541 21 260 0.0 0.0 0.00 0.00 0.00 40 1006.6
20210514201044 21 261 0.0 0.0 0.00 0.00 0.00 40 1006.6
20210514200539 21 276 0.0 0.0 0.00 0.00 0.00 40 1006.6
20210514200048 21 254 0.0 0.0 0.00 0.00 0.00 40 1006.7
20210514195546 21 255 0.0 0.0 0.00 0.00 0.00 40 1006.8
20210514195040 21 250 0.0 0.0 0.00 0.00 0.00 40 1006.8
20210514194548 21 259 0.0 0.0 0.00 0.00 0.00 40 1006.7
20210514194047 21 260 0.0 0.0 0.00 0.00 0.00 40 1006.8
20210514193547 21 267 0.0 0.0 0.00 0.00 0.00 40 1006.7
20210514193050 21 273 0.0 0.0 0.00 0.00 0.00 40 1006.7
20210514192549 21 246 0.0 0.0 0.00 0.00 0.00 40 1006.6
20210514192058 21 271 0.0 0.0 0.00 0.00 0.00 40 1006.5
20210514191533 21 252 0.0 0.0 0.00 0.00 0.00 40 1006.5
20210514191032 21 228 0.0 0.0 0.00 0.00 0.00 39 1006.3
20210514190544 22 256 0.0 0.0 0.00 0.00 0.00 39 1006.3
20210514190040 22 263 0.0 0.0 0.00 0.00 0.00 39 1006.2
20210514185536 22 284 0.0 0.0 0.00 0.00 0.00 39 1006.1
20210514185042 22 280 0.0 0.0 0.00 0.00 0.00 39 1006.0
20210514184542 22 275 0.0 0.0 0.00 0.00 0.00 39 1005.7
20210514184034 22 281 0.0 0.0 0.00 0.00 0.00 39 1005.6
20210514183539 22 290 0.0 0.0 0.00 0.00 0.00 39 1005.6
20210514183037 22 273 0.0 0.0 0.00 0.00 0.00 39 1005.6
20210514182539 22 323 0.0 0.0 0.00 0.00 0.00 40 1005.5
20210514182039 22 279 0.0 0.0 0.00 0.00 0.00 40 1005.5
20210514181547 22 265 0.0 0.0 0.00 0.00 0.00 39 1005.4
20210514181040 22 285 0.0 0.0 0.00 0.00 0.00 39 1005.3
20210514180540 22 283 0.0 0.0 0.00 0.00 0.00 39 1005.2
20210514180048 23 302 0.0 0.0 0.00 0.00 0.00 39 1005.1
20210514175539 23 286 0.0 0.0 0.00 0.00 0.00 38 1005.2
20210514175049 23 324 0.0 0.0 0.00 0.00 0.00 38 1005.1
20210514174547 23 284 0.0 0.0 0.00 0.00 0.00 38 1005.2
20210514174044 23 284 0.0 0.0 0.00 0.00 0.00 38 1005.1
20210514173547 23 278 0.0 0.0 0.00 0.00 0.00 38 1005.1
20210514173044 23 290 0.0 0.0 0.00 0.00 0.00 38 1005.2
20210514172539 23 284 0.0 0.0 0.00 0.00 0.00 38 1005.2
20210514172045 23 301 0.0 0.0 0.00 0.00 0.00 38 1005.1
20210514171541 23 26 0.0 0.0 0.00 0.00 0.00 38 1005.0
20210514171049 24 43 0.0 0.0 0.00 0.00 0.00 39 1005.1
20210514170539 24 49 0.0 0.0 0.00 0.00 0.00 43 1005.0
20210514170035 24 49 0.0 0.0 0.00 0.00 0.00 42 1004.9
20210514165540 24 49 0.0 0.0 0.00 0.00 0.00 43 1004.9
20210514165052 24 49 0.0 0.0 0.00 0.00 0.00 42 1004.9
20210514164545 25 49 0.0 0.0 0.00 0.00 0.00 42 1004.8
20210514164039 25 49 0.0 0.0 0.00 0.00 0.00 42 1004.8
20210514163541 25 49 0.0 0.0 0.00 0.00 0.00 41 1004.8
20210514163040 25 49 0.0 0.0 0.00 0.00 0.00 39 1004.8
20210514162538 25 49 0.0 0.0 0.00 0.00 0.00 38 1004.7
20210514162044 25 49 0.0 0.0 0.00 0.00 0.00 38 1004.8
20210514161535 25 49 0.0 0.0 0.00 0.00 0.00 38 1004.8
20210514161046 25 49 0.0 0.0 0.00 0.00 0.00 38 1004.9
20210514160544 25 49 0.0 0.0 0.00 0.00 0.00 39 1004.9
20210514160040 25 49 0.0 0.0 0.00 0.00 0.00 40 1004.9
20210514155548 25 49 0.0 0.0 0.00 0.00 0.00 39 1004.9
20210514155046 25 49 0.0 0.0 0.00 0.00 0.00 39 1004.8
20210514154541 25 49 0.0 0.0 0.00 0.00 0.00 40 1004.8
20210514154049 25 49 0.0 0.0 0.00 0.00 0.00 38 1004.7
20210514153548 25 49 0.0 0.0 0.00 0.00 0.00 38 1004.7
20210514153055 25 49 0.0 0.0 0.00 0.00 0.00 37 1004.8
20210514152552 25 49 0.0 0.0 0.00 0.00 0.00 37 1004.8
20210514152051 25 51 0.0 0.0 0.00 0.00 0.00 36 1004.6
20210514151600 26 55 0.0 0.0 0.00 0.00 0.00 35 1004.8
20210514151035 26 70 0.0 0.0 0.00 0.00 0.00 33 1004.8
20210514150534 26 74 0.0 0.0 0.00 0.00 0.00 32 1004.7
20210514150042 26 74 0.0 0.0 0.00 0.00 0.00 31 1004.9
20210514145538 26 75 0.0 0.0 0.00 0.00 0.00 31 1004.9
20210514145035 26 75 0.0 0.0 0.00 0.00 0.00 31 1004.9
20210514144543 26 74 0.0 0.0 0.00 0.00 0.00 30 1005.0
20210514144038 26 75 0.0 0.0 0.00 0.00 0.00 30 1005.1
20210514143546 26 76 0.0 0.0 0.00 0.00 0.00 30 1005.0
20210514143045 26 76 0.0 0.0 0.00 0.00 0.00 30 1004.9
20210514142543 26 76 0.0 0.0 0.00 0.00 0.00 30 1004.9
20210514142049 26 76 0.0 0.0 0.00 0.00 0.00 30 1004.9
20210514141546 26 76 0.0 0.0 0.00 0.00 0.00 31 1004.9
20210514141040 26 76 0.0 0.0 0.00 0.00 0.00 31 1005.0
20210514140544 26 78 0.0 0.0 0.00 0.00 0.00 31 1005.0
20210514140044 26 86 0.0 0.0 0.00 0.00 0.00 33 1005.2
20210514135549 25 86 0.0 0.0 0.00 0.00 0.00 33 1005.2
20210514135044 25 86 0.0 0.0 0.00 0.00 0.00 33 1005.0
20210514134538 25 87 0.0 0.0 0.00 0.00 0.00 34 1005.2
20210514134045 25 36 0.0 0.0 0.00 0.00 0.00 35 1005.3
20210514133538 25 55 0.0 0.0 0.00 0.00 0.00 35 1005.3
20210514133035 25 258 0.0 0.0 0.00 0.00 0.00 33 1005.3
20210514132541 25 255 0.0 0.0 0.00 0.00 0.00 34 1005.3
20210514132037 25 255 0.0 0.0 0.00 0.00 0.00 33 1005.4
20210514131601 25 273 0.0 0.0 0.00 0.00 0.00 32 1005.4
20210514131039 25 249 0.0 0.0 0.00 0.00 0.00 31 1005.4
20210514130538 25 245 0.0 0.0 0.00 0.00 0.00 32 1005.5
20210514130042 25 259 0.0 0.0 0.00 0.00 0.00 31 1005.5
20210514125539 25 265 0.0 0.0 0.00 0.00 0.00 32 1005.4
20210514125039 25 290 0.0 0.0 0.00 0.00 0.00 32 1005.7
20210514124544 25 254 0.0 0.0 0.00 0.00 0.00 32 1005.5
20210514124045 25 257 0.0 0.0 0.00 0.00 0.00 32 1005.5
20210514123555 25 258 0.0 0.0 0.00 0.00 0.00 32 1005.5
20210514123033 25 264 0.0 0.0 0.00 0.00 0.00 32 1005.6
20210514122548 25 253 0.0 0.0 0.00 0.00 0.00 33 1005.5
20210514122057 25 255 0.0 0.0 0.00 0.00 0.00 32 1005.7
20210514121537 24 260 0.0 0.0 0.00 0.00 0.00 32 1005.8
20210514121049 24 301 0.0 0.0 0.00 0.00 0.00 33 1005.8
20210514120556 24 255 0.0 0.0 0.00 0.00 0.00 35 1005.7
20210514120035 24 237 0.0 0.0 0.00 0.00 0.00 35 1005.8
20210514115600 24 242 0.0 0.0 0.00 0.00 0.00 33 1005.8
20210514115040 24 219 0.0 0.0 0.00 0.00 0.00 34 1005.8
20210514114541 24 226 0.0 0.0 0.00 0.00 0.00 34 1005.7
20210514114036 24 217 0.0 0.0 0.00 0.00 0.00 35 1005.7
20210514113544 24 217 0.0 0.0 0.00 0.00 0.00 35 1005.8
20210514113044 24 217 0.0 0.0 0.00 0.00 0.00 35 1005.8
20210514112551 24 223 0.0 0.0 0.00 0.00 0.00 34 1005.8
20210514112047 24 201 0.0 0.0 0.00 0.00 0.00 34 1005.8
20210514111545 24 296 0.0 0.0 0.00 0.00 0.00 34 1005.4
20210514111055 24 66 0.0 0.0 0.00 0.00 0.00 33 1005.8
20210514110551 25 49 0.0 0.0 0.00 0.00 0.00 34 1005.8
20210514110032 25 47 0.0 0.0 0.00 0.00 0.00 34 1005.8
20210514105559 25 51 0.0 0.0 0.00 0.00 0.00 34 1005.8
20210514105036 26 61 0.0 0.0 0.00 0.00 0.00 32 1005.8
20210514104537 26 286 0.0 0.0 0.00 0.00 0.00 30 1005.5
20210514104045 25 257 0.0 0.0 0.00 0.00 0.00 27 1005.8
20210514103541 25 259 0.0 0.0 0.00 0.00 0.00 27 1005.8
20210514103101 25 1 0.0 0.0 0.00 0.00 0.00 27 1005.9
20210514102536 25 344 0.0 0.0 0.00 0.00 0.00 30 1005.9
20210514102052 25 306 0.0 0.0 0.00 0.00 0.00 29 1005.9
20210514101556 25 23 0.0 0.0 0.00 0.00 0.00 29 1005.8
20210514101035 25 332 0.0 0.0 0.00 0.00 0.00 30 1005.8
20210514100536 24 351 0.0 0.0 0.00 0.00 0.00 30 1005.6
20210514100044 24 34 0.0 0.0 0.00 0.00 0.00 31 1005.6
20210514095545 24 38 0.0 0.0 0.00 0.00 0.00 32 1005.7
20210514095047 25 261 0.0 0.0 0.00 0.00 0.00 33 1005.7
20210514094549 25 265 0.0 0.0 0.00 0.00 0.00 35 1005.8
20210514094051 25 222 0.0 0.0 0.00 0.00 0.00 33 1005.6
20210514093559 25 86 0.0 0.0 0.00 0.00 0.00 35 1005.9
20210514093041 25 86 0.0 0.0 0.00 0.00 0.00 36 1005.9
20210514092536 25 84 0.0 0.0 0.00 0.00 0.00 35 1006.0
20210514092036 25 76 0.0 0.0 0.00 0.00 0.00 34 1006.0
20210514091542 24 77 0.0 0.0 0.00 0.00 0.00 35 1005.9
20210514091036 24 75 0.0 0.0 0.00 0.00 0.00 35 1006.0
20210514090535 24 55 0.0 0.0 0.00 0.00 0.00 37 1006.1
20210514090041 23 42 0.0 0.0 0.00 0.00 0.00 35 1006.2
20210514085535 23 38 0.0 0.0 0.00 0.00 0.00 33 1006.2
20210514085045 23 38 0.0 0.0 0.00 0.00 0.00 34 1006.4
20210514084546 23 48 0.0 0.0 0.00 0.00 0.00 35 1006.2
20210514084045 23 59 0.0 0.0 0.00 0.00 0.00 37 1006.3
20210514083549 23 67 0.0 0.0 0.00 0.00 0.00 36 1006.3
20210514083046 23 70 0.0 0.0 0.00 0.00 0.00 36 1006.2
20210514082542 23 75 0.0 0.0 0.00 0.00 0.00 37 1006.2
20210514082046 23 80 0.0 0.0 0.00 0.00 0.00 37 1006.3
20210514081549 23 85 0.0 0.0 0.00 0.00 0.00 37 1006.3
20210514081058 23 85 0.0 0.0 0.00 0.00 0.00 37 1006.3
20210514080551 23 81 0.0 0.0 0.00 0.00 0.00 38 1006.1
20210514080047 23 80 0.0 0.0 0.00 0.00 0.00 38 1006.1
20210514075559 22 79 0.0 0.0 0.00 0.00 0.00 39 1006.3
20210514075037 22 78 0.0 0.0 0.00 0.00 0.00 39 1006.3
20210514074549 22 81 0.0 0.0 0.00 0.00 0.00 39 1006.3
20210514074058 22 84 0.0 0.0 0.00 0.00 0.00 39 1006.3
20210514073534 22 113 0.0 0.0 0.00 0.00 0.00 41 1006.3
20210514073044 22 113 0.0 0.0 0.00 0.00 0.00 43 1006.4
20210514072549 21 113 0.0 0.0 0.00 0.00 0.00 43 1006.4
20210514072046 21 90 0.0 0.0 0.00 0.00 0.00 42 1006.4
20210514071551 21 88 0.0 0.0 0.00 0.00 0.00 43 1006.4
20210514071051 21 157 0.0 0.0 0.00 0.00 0.00 43 1006.4
20210514070547 21 148 0.0 0.0 0.00 0.00 0.00 43 1006.4
20210514070053 21 178 0.0 0.0 0.00 0.00 0.00 43 1006.4
20210514065550 21 147 0.0 0.0 0.00 0.00 0.00 43 1006.4
20210514065056 21 189 0.0 0.0 0.00 0.00 0.00 44 1006.3
20210514064546 21 190 0.0 0.0 0.00 0.00 0.00 43 1006.3
20210514064042 21 191 0.0 0.0 0.00 0.00 0.00 43 1006.3
20210514063549 21 198 0.0 0.0 0.00 0.00 0.00 43 1006.3
20210514063049 21 213 0.0 0.0 0.00 0.00 0.00 43 1006.3
20210514062543 21 228 0.0 0.0 0.00 0.00 0.00 44 1006.2
20210514062050 20 222 0.0 0.0 0.00 0.00 0.00 44 1006.3
20210514061548 20 201 0.0 0.0 0.00 0.00 0.00 43 1006.2
20210514061042 20 207 0.0 0.0 0.00 0.00 0.00 45 1006.2
20210514060550 20 199 0.0 0.0 0.00 0.00 0.00 45 1006.1
20210514060050 20 219 0.0 0.0 0.00 0.00 0.00 45 1006.1
20210514055542 20 226 0.0 0.0 0.00 0.00 0.00 47 1006.0
20210514055050 20 217 0.0 0.0 0.00 0.00 0.00 47 1005.9
20210514054549 20 212 0.0 0.0 0.00 0.00 0.00 46 1005.9
20210514054055 20 213 0.0 0.0 0.00 0.00 0.00 46 1005.9
20210514053532 20 238 0.0 0.0 0.00 0.00 0.00 46 1005.9
20210514053049 20 228 0.0 0.0 0.00 0.00 0.00 46 1005.7
20210514052559 20 223 0.0 0.0 0.00 0.00 0.00 46 1005.7
20210514052050 20 211 0.0 0.0 0.00 0.00 0.00 46 1005.7
20210514051558 20 222 0.0 0.0 0.00 0.00 0.00 46 1005.6
20210514051035 19 224 0.0 0.0 0.00 0.00 0.00 47 1005.5
20210514050550 19 211 0.0 0.0 0.00 0.00 0.00 47 1005.5
20210514050032 19 236 0.0 0.0 0.00 0.00 0.00 47 1005.5
20210514045541 19 234 0.0 0.0 0.00 0.00 0.00 48 1005.6
20210514045037 18 234 0.0 0.0 0.00 0.00 0.00 47 1005.5
20210514044537 18 250 0.0 0.0 0.00 0.00 0.00 48 1005.4
20210514044046 18 255 0.0 0.0 0.00 0.00 0.00 48 1005.4
20210514043548 18 227 0.0 0.0 0.00 0.00 0.00 50 1005.4
20210514043052 18 225 0.0 0.0 0.00 0.00 0.00 50 1005.4
20210514042532 17 267 0.0 0.0 0.00 0.00 0.00 51 1005.2
20210514042050 17 267 0.0 0.0 0.00 0.00 0.00 52 1005.3
20210514041556 17 265 0.0 0.0 0.00 0.00 0.00 51 1005.4